NULL Weather Reports


Display with metric or nautical units.
time (UTC)temp
F
wind
direction
speed
MPH
gust
MPH
rain 1hr
in
rain 24hr
in
rain mn
in
humidity
%
barometer
mb
20260508173054 64 131 0.0 0.0 0.00 0.00 0.00 85 1015.7
20260508173007 61 54 3.0 5.0 0.00 0.00 0.00 72 1009.7
20260508171552 63 131 0.0 0.0 0.00 0.00 0.00 86 1015.8
20260508171514 61 345 2.0 6.0 0.00 0.00 0.00 71 1009.8
20260508170053 63 132 0.0 0.0 0.00 0.00 0.00 86 1015.8
20260508170007 62 359 5.0 8.0 0.00 0.00 0.00 69 1010.1
20260508164557 63 132 0.0 0.0 0.00 0.00 0.00 86 1015.9
20260508164506 62 52 3.0 12.0 0.00 0.00 0.00 68 1010.7
20260508163049 63 135 0.0 0.0 0.00 0.00 0.00 87 1015.8
20260508163004 62 235 2.0 11.0 0.00 0.00 0.00 67 1011.4
20260508161550 62 139 0.0 0.0 0.00 0.00 0.00 87 1015.8
20260508161501 61 303 3.0 10.0 0.00 0.00 0.00 67 1011.0
20260508160101 61 235 5.0 9.0 0.00 0.00 0.00 68 1010.4
20260508160047 62 139 0.0 0.0 0.00 0.00 0.00 88 1015.7
20260508154557 60 212 4.0 9.0 0.00 0.00 0.00 69 1010.2
20260508154546 62 139 0.0 0.0 0.00 0.00 0.00 89 1015.7
20260508153056 60 128 5.0 12.0 0.00 0.00 0.00 67 1010.2
20260508153045 62 140 0.0 0.0 0.00 0.00 0.00 89 1015.8
20260508151555 60 205 5.0 9.0 0.00 0.00 0.00 68 1010.3
20260508151544 62 140 0.0 0.0 0.00 0.00 0.00 90 1015.8
20260508150118 60 359 5.0 10.0 0.00 0.00 0.00 68 1010.4
20260508150043 61 140 0.0 0.0 0.00 0.00 0.00 90 1015.8
20260508144558 60 248 7.0 12.0 0.00 0.00 0.00 68 1010.2
20260508144543 61 140 0.0 0.0 0.00 0.00 0.00 90 1015.9
20260508143048 60 245 11.0 19.0 0.00 0.00 0.00 67 1010.2
20260508143041 61 140 0.0 0.0 0.00 0.00 0.00 90 1015.8
20260508141541 61 138 0.0 0.0 0.00 0.00 0.00 90 1015.7
20260508141539 59 181 6.0 13.0 0.00 0.00 0.00 68 1010.3
20260508140044 59 206 4.0 10.0 0.00 0.00 0.00 69 1010.7
20260508140041 61 138 0.0 2.0 0.00 0.00 0.00 90 1015.5
20260508134542 61 137 0.0 0.0 0.00 0.00 0.00 90 1015.6
20260508134538 58 193 3.0 8.0 0.00 0.00 0.00 70 1010.7
20260508133042 57 210 2.0 10.0 0.00 0.00 0.00 72 1010.6
20260508131542 61 137 0.0 0.0 0.00 0.00 0.00 90 1015.5
20260508131537 56 156 4.0 8.0 0.00 0.00 0.00 74 1010.3
20260508130037 61 138 0.0 0.0 0.00 0.00 0.00 90 1015.4
20260508124536 61 132 0.0 4.0 0.00 0.00 0.00 89 1015.2
20260508123036 61 96 0.0 0.0 0.00 0.00 0.00 89 1015.2
20260508121540 61 106 0.0 3.0 0.00 0.00 0.00 89 1015.2
20260508121534 55 148 0.0 3.0 0.00 0.00 0.00 77 1010.2
20260508120040 61 126 0.0 0.0 0.00 0.00 0.00 89 1015.1
20260508120034 56 134 3.0 5.0 0.00 0.00 0.00 77 1010.1
20260508114536 56 206 0.0 2.0 0.00 0.00 0.00 74 1010.5
20260508114533 61 128 0.0 0.0 0.00 0.00 0.00 89 1015.2
20260508113046 57 343 1.0 3.0 0.00 0.00 0.00 70 1010.2
20260508113039 61 138 0.0 0.0 0.00 0.00 0.00 89 1015.1
20260508111540 61 128 0.0 0.0 0.00 0.00 0.00 89 1015.0
20260508111533 57 310 0.0 4.0 0.00 0.00 0.00 67 1010.4
20260508110032 57 354 2.0 4.0 0.00 0.00 0.00 67 1010.2
20260508110030 62 135 0.0 3.0 0.00 0.00 0.00 89 1014.8
20260508104537 57 214 1.0 8.0 0.00 0.00 0.00 67 1009.7
20260508104530 62 135 0.0 0.0 0.00 0.00 0.00 89 1014.9
20260508103031 56 193 2.0 8.0 0.00 0.00 0.00 70 1009.6
20260508103028 62 136 0.0 0.0 0.00 0.00 0.00 89 1014.8
20260508101536 54 181 1.0 3.0 0.00 0.00 0.00 77 1009.7
20260508101528 62 110 0.0 0.0 0.00 0.00 0.00 89 1015.0
20260508100036 53 36 0.0 2.0 0.00 0.00 0.00 80 1009.6
20260508100027 61 102 0.0 0.0 0.00 0.00 0.00 89 1015.0
20260508094528 54 36 0.0 3.0 0.00 0.00 0.00 80 1009.7
20260508094526 61 159 0.0 0.0 0.00 0.00 0.00 89 1014.8
20260508093027 54 36 0.0 3.0 0.00 0.00 0.00 78 1009.8
20260508093025 61 159 0.0 0.0 0.00 0.00 0.00 89 1014.9
20260508091527 54 204 0.0 2.0 0.00 0.00 0.00 77 1009.8
20260508091524 61 151 0.0 0.0 0.00 0.00 0.00 89 1015.0
20260508090025 55 204 1.0 2.0 0.00 0.00 0.00 72 1009.8
20260508090021 61 118 0.0 0.0 0.00 0.00 0.00 89 1015.1
20260508084520 61 122 0.0 0.0 0.00 0.00 0.00 89 1015.2
20260508083021 61 113 0.0 0.0 0.00 0.00 0.00 89 1015.4
20260508083017 56 116 0.0 2.0 0.00 0.00 0.00 69 1009.8
20260508081519 61 136 0.0 0.0 0.00 0.00 0.00 89 1015.6
20260508081517 56 226 1.0 7.0 0.00 0.00 0.00 68 1010.0
20260508080016 61 148 0.0 0.0 0.00 0.00 0.00 89 1015.7
20260508074517 61 148 0.0 0.0 0.00 0.00 0.00 89 1015.6
20260508073017 61 146 0.0 2.0 0.00 0.00 0.00 89 1015.6
20260508073010 56 210 4.0 9.0 0.00 0.00 0.00 69 1010.5
20260508071515 61 146 0.0 4.0 0.00 0.00 0.00 89 1015.7
20260508071508 56 185 4.0 7.0 0.00 0.00 0.00 68 1010.7
20260508070011 61 151 0.0 3.0 0.00 0.00 0.00 89 1015.7
20260508070005 56 185 4.0 7.0 0.00 0.00 0.00 67 1010.8
20260508064515 61 142 1.0 5.0 0.00 0.00 0.00 89 1015.6
20260508064502 57 222 2.0 8.0 0.00 0.00 0.00 67 1011.0
20260508063059 57 174 3.0 8.0 0.00 0.00 0.00 66 1011.1
20260508063011 61 142 0.0 6.0 0.00 0.00 0.00 89 1015.6
20260508061601 57 206 5.0 9.0 0.00 0.00 0.00 65 1011.3
20260508061511 61 144 0.0 2.0 0.00 0.00 0.00 89 1015.5
20260508060058 58 129 5.0 10.0 0.00 0.00 0.00 65 1011.3
20260508060009 61 144 0.0 2.0 0.00 0.00 0.00 89 1015.5
20260508054620 58 203 5.0 10.0 0.00 0.00 0.00 63 1011.3
20260508054511 61 133 1.0 7.0 0.00 0.00 0.00 89 1015.6
20260508053051 59 214 5.0 10.0 0.00 0.00 0.00 62 1011.3
20260508053009 61 167 0.0 6.0 0.00 0.00 0.00 89 1015.7
20260508051549 59 195 6.0 10.0 0.00 0.00 0.00 61 1011.3
20260508051516 61 167 0.0 6.0 0.00 0.00 0.00 89 1015.5
20260508050045 60 217 4.0 11.0 0.00 0.00 0.00 60 1011.3
20260508050010 61 116 0.0 7.0 0.00 0.00 0.00 89 1015.5
20260508044545 60 216 5.0 10.0 0.00 0.00 0.00 59 1011.5
20260508044507 62 126 2.0 6.0 0.00 0.00 0.00 89 1015.5
20260508043050 61 233 6.0 10.0 0.00 0.00 0.00 59 1011.5
20260508043014 62 131 0.0 5.0 0.00 0.00 0.00 88 1015.3
20260508041545 61 228 3.0 9.0 0.00 0.00 0.00 58 1011.7
20260508041509 62 120 0.0 0.0 0.00 0.00 0.00 88 1015.0
20260508040050 62 214 3.0 10.0 0.00 0.00 0.00 57 1011.6
20260508040006 62 142 0.0 4.0 0.00 0.00 0.00 88 1014.9
20260508034546 62 219 6.0 12.0 0.00 0.00 0.00 56 1011.5
20260508034506 62 136 1.0 7.0 0.00 0.00 0.00 87 1014.7
20260508033043 62 216 5.0 12.0 0.00 0.00 0.00 56 1011.6
20260508033007 62 140 2.0 7.0 0.00 0.00 0.00 87 1014.5
20260508031551 62 160 5.0 10.0 0.00 0.00 0.00 56 1011.4
20260508031505 63 158 1.0 8.0 0.00 0.00 0.00 86 1014.3
20260508030043 63 222 6.0 11.0 0.00 0.00 0.00 55 1011.2
20260508030004 63 152 0.0 0.0 0.00 0.00 0.00 85 1014.0
20260508024541 63 216 8.0 13.0 0.00 0.00 0.00 54 1011.1
20260508024504 63 144 0.0 7.0 0.00 0.00 0.00 84 1013.8
20260508023041 63 217 5.0 13.0 0.00 0.00 0.00 53 1010.9
20260508023003 64 142 6.0 10.0 0.00 0.00 0.00 82 1013.7
20260508021542 64 210 3.0 9.0 0.00 0.00 0.00 53 1010.9
20260508021503 65 140 3.0 9.0 0.00 0.00 0.00 81 1013.6
20260508020039 64 171 4.0 11.0 0.00 0.00 0.00 53 1010.6
20260508020007 66 141 0.0 7.0 0.00 0.00 0.00 80 1013.5
20260508014539 65 197 1.0 5.0 0.00 0.00 0.00 52 1010.6
20260508014503 66 159 2.0 8.0 0.00 0.00 0.00 78 1013.4
20260508013041 65 141 2.0 8.0 0.00 0.00 0.00 49 1010.5
20260508013001 67 160 3.0 8.0 0.00 0.00 0.00 76 1013.2
20260508011545 66 205 4.0 8.0 0.00 0.00 0.00 48 1010.5
20260508011501 68 155 0.0 8.0 0.00 0.00 0.00 75 1013.1
20260508010100 69 146 0.0 0.0 0.00 0.00 0.00 73 1013.2
20260508010040 67 142 5.0 11.0 0.00 0.00 0.00 47 1010.4
20260508004601 70 117 0.0 0.0 0.00 0.00 0.00 72 1013.2
20260508004540 68 359 5.0 11.0 0.00 0.00 0.00 46 1010.5
20260508003059 70 113 0.0 0.0 0.00 0.00 0.00 72 1013.1
20260508003037 68 359 7.0 12.0 0.00 0.00 0.00 44 1010.4
20260508001558 70 161 0.0 9.0 0.00 0.00 0.00 72 1013.1
20260508001538 69 192 7.0 13.0 0.00 0.00 0.00 44 1010.5
20260508000059 70 138 0.0 9.0 0.00 0.00 0.00 71 1013.0
20260508000039 69 159 5.0 15.0 0.00 0.00 0.00 44 1010.7
20260507234558 70 113 0.0 8.0 0.00 0.00 0.00 71 1013.0
20260507234542 69 197 8.0 13.0 0.00 0.00 0.00 42 1010.6
20260507233055 70 153 0.0 9.0 0.00 0.00 0.00 71 1013.2
20260507233035 70 359 3.0 16.0 0.00 0.00 0.00 42 1010.9
20260507231558 71 150 1.0 11.0 0.00 0.00 0.00 69 1013.2
20260507231537 70 359 3.0 17.0 0.00 0.00 0.00 42 1011.0
20260507230052 72 121 0.0 9.0 0.00 0.00 0.00 68 1013.3
20260507230029 70 359 7.0 16.0 0.00 0.00 0.00 41 1011.1
20260507224554 73 146 0.0 2.0 0.00 0.00 0.00 68 1013.5
20260507224528 70 359 6.0 19.0 0.00 0.00 0.00 42 1011.4
20260507223055 73 178 0.0 5.0 0.00 0.00 0.00 66 1013.5
20260507223026 69 165 13.0 21.0 0.00 0.00 0.00 42 1011.3
20260507221549 74 171 0.0 7.0 0.00 0.00 0.00 65 1013.6
20260507221525 70 359 9.0 15.0 0.00 0.00 0.00 42 1011.5
20260507220048 74 159 0.0 5.0 0.00 0.00 0.00 65 1013.8
20260507220024 69 359 10.0 18.0 0.00 0.00 0.00 43 1011.6
20260507214546 74 137 0.0 0.0 0.00 0.00 0.00 63 1013.9
20260507214528 69 359 11.0 19.0 0.00 0.00 0.00 44 1011.6
20260507213048 74 184 1.0 9.0 0.00 0.00 0.00 62 1014.0
20260507213022 69 208 6.0 21.0 0.00 0.00 0.00 44 1011.7
20260507211545 74 148 0.0 10.0 0.00 0.00 0.00 63 1014.1
20260507211518 68 188 12.0 25.0 0.00 0.00 0.00 45 1011.8
20260507210045 74 160 0.0 9.0 0.00 0.00 0.00 62 1014.2
20260507210017 68 192 9.0 19.0 0.00 0.00 0.00 46 1012.2
20260507204544 75 125 0.0 6.0 0.00 0.00 0.00 63 1014.4
20260507204515 68 114 12.0 25.0 0.00 0.00 0.00 45 1012.4
20260507203041 74 162 0.0 7.0 0.00 0.00 0.00 65 1014.6
20260507203010 67 213 9.0 20.0 0.00 0.00 0.00 46 1012.7
20260507201537 74 132 0.0 7.0 0.00 0.00 0.00 63 1014.7
20260507201515 67 197 12.0 27.0 0.00 0.00 0.00 47 1013.1
20260507200029 74 148 0.0 3.0 0.00 0.00 0.00 63 1014.8
20260507200008 67 189 11.0 27.0 0.00 0.00 0.00 47 1013.3
20260507194525 74 144 0.0 7.0 0.00 0.00 0.00 64 1014.9
20260507194506 66 217 9.0 21.0 0.00 0.00 0.00 47 1013.5
20260507193020 74 155 0.0 0.0 0.00 0.00 0.00 66 1014.9
20260507193005 65 199 10.0 25.0 0.00 0.00 0.00 48 1013.8
20260507191600 65 184 10.0 23.0 0.00 0.00 0.00 49 1014.1
20260507191519 73 162 0.0 0.0 0.00 0.00 0.00 67 1015.0
20260507190059 65 219 10.0 22.0 0.00 0.00 0.00 49 1014.1
20260507190019 73 156 0.0 0.0 0.00 0.00 0.00 67 1015.1
20260507184558 65 233 11.0 25.0 0.00 0.00 0.00 50 1014.2
20260507184516 73 128 0.0 1.0 0.00 0.00 0.00 68 1015.3
20260507183054 64 218 13.0 22.0 0.00 0.00 0.00 50 1014.4
20260507183017 73 134 0.0 0.0 0.00 0.00 0.00 68 1015.4
20260507181553 65 198 11.0 19.0 0.00 0.00 0.00 49 1014.7
20260507181513 73 148 0.0 0.0 0.00 0.00 0.00 67 1015.4
20260507180052 64 196 13.0 24.0 0.00 0.00 0.00 51 1015.0
20260507180011 72 127 0.0 0.0 0.00 0.00 0.00 68 1015.5
20260507174614 63 195 13.0 27.0 0.00 0.00 0.00 50 1015.2
20260507174511 73 141 0.0 0.0 0.00 0.00 0.00 67 1015.6